Orbital Elements at Epoch 2459200.5 (2020-Dec-17.0) TDB
Reference: JPL 20 (heliocentric ecliptic J2000)
Element | Value | Uncertainty (1-sigma) | Units |
e | .1984319203005923 | 5.0303e-08 | |
a | 2.407500744712517 | 1.3053e-08 | au |
q | 1.929775748814106 | 1.191e-07 | au |
i | 5.646559765699638 | 5.6386e-06 | deg |
node | 185.9809435557357 | 4.3462e-05 | deg |
peri | 146.1465580277718 | 4.5586e-05 | deg |
M | 266.1985949856291 | 1.7217e-05 | deg |
tp | 2459556.012532345608 (2021-Dec-07.51253235) | 6.7061e-05 | TDB |
period | 1364.419985231684 3.74 | 1.1097e-05 3.038e-08 | d yr |
n | .2638483779896193 | 2.1459e-09 | deg/d |
Q | 2.885225740610928 | 1.5644e-08 | au |
|
| | Orbit Determination Parameters
Additional Information
|